Overview Statistics Trail Chart Weather Telemetry Raw packets
 

This is the latest recevied weather packets stored in our database for station/object EA4URC-10. If no packets are shown the sender has not sent any weather packets the latest 10 day(s).

<< 3 4 5 6 7 8 9 >>
Time Temp. Humidity Pressure Rain* Wind** Luminosity Snow
1788397801 21.11° C 83% 1040.7 hPa - - - -
1788395999 21.67° C 72% 1040.8 hPa - - - -
1788394198 22.78° C 41% 1040.8 hPa - - - -
1788392398 22.78° C 38% 1040.8 hPa - - - -
1788390598 23.33° C 31% 1040.7 hPa - - - -
1788388797 23.89° C 30% 1040.6 hPa - - - -
1788386996 24.44° C 29% 1040.3 hPa - - - -
1788385196 24.44° C 30% 1040.3 hPa - - - -
1788383395 24.44° C 29% 1040.3 hPa - - - -
1788381600 24.44° C 27% 1040.5 hPa - - - -
1788379800 24.44° C 27% 1040.3 hPa - - - -
1788377999 25° C 28% 1039.8 hPa - - - -
1788376199 25.56° C 29% 1039.5 hPa - - - -
1788374398 26.11° C 28% 1039.4 hPa - - - -
1788372872 28.33° C 24% 1039.3 hPa - - - -
1788372598 28.33° C 24% 1039.3 hPa - - - -
1788370799 31.11° C 21% 1039.3 hPa - - - -
1788368997 31.11° C 20% 1039.2 hPa - - - -
1788367196 30.56° C 20% 1039 hPa - - - -
1788365396 31.67° C 18% 1039 hPa - - - -
1788363897 32.78° C 17% 1039.3 hPa - - - -
1788363595 32.78° C 17% 1039.3 hPa - - - -
1788361794 34.44° C 19% 1039.2 hPa - - - -
1788359999 36.11° C 17% 1039.3 hPa - - - -
1788358202 34.44° C 20% 1039.7 hPa - - - -

* Rain since midnight (hover to see other rain measurements)
** Current wind speed in m/s (hover to see current wind gust speed)